TimePST,TemperatureF,Dew PointF,Humidity,Sea Level PressureIn,VisibilityMPH,Wind Direction,Wind SpeedMPH,Gust SpeedMPH,PrecipitationIn,Events,Conditions,WindDirDegrees,DateUTC
12:23 AM,57.2,44.6,63,30.13,10.0,WNW,6.9,-,N/A,,Overcast,290,2013-03-06 08:23:00
12:53 AM,55.9,44.1,64,30.12,10.0,West,3.5,-,N/A,,Overcast,260,2013-03-06 08:53:00
1:53 AM,55.9,42.1,60,30.12,10.0,West,3.5,-,N/A,,Overcast,260,2013-03-06 09:53:00
2:05 AM,55.4,42.8,63,30.12,10.0,Calm,Calm,-,N/A,,Overcast,0,2013-03-06 10:05:00
2:34 AM,55.4,42.8,63,30.11,10.0,Calm,Calm,-,N/A,,Overcast,0,2013-03-06 10:34:00
2:41 AM,55.4,42.8,63,30.11,10.0,SW,4.6,-,N/A,,Overcast,230,2013-03-06 10:41:00
2:53 AM,55.9,41.0,57,30.11,10.0,Variable,4.6,-,N/A,,Overcast,0,2013-03-06 10:53:00
4:53 AM,55.0,42.1,62,30.12,10.0,Calm,Calm,-,N/A,,Overcast,0,2013-03-06 12:53:00
5:53 AM,53.1,41.0,64,30.13,10.0,Calm,Calm,-,N/A,,Scattered Clouds,0,2013-03-06 13:53:00
6:53 AM,54.0,42.1,64,30.13,10.0,Calm,Calm,-,N/A,,Clear,0,2013-03-06 14:53:00
7:53 AM,57.0,42.1,57,30.15,10.0,Calm,Calm,-,N/A,,Clear,0,2013-03-06 15:53:00
8:53 AM,59.0,42.1,53,30.15,10.0,Calm,Calm,-,N/A,,Scattered Clouds,0,2013-03-06 16:53:00
9:53 AM,60.1,41.0,49,30.14,10.0,SE,3.5,-,N/A,,Scattered Clouds,140,2013-03-06 17:53:00
10:53 AM,64.9,41.0,42,30.14,10.0,East,4.6,-,N/A,,Partly Cloudy,100,2013-03-06 18:53:00
11:53 AM,64.9,39.9,40,30.11,10.0,Variable,4.6,-,N/A,,Partly Cloudy,0,2013-03-06 19:53:00
12:53 PM,66.0,41.0,40,30.08,10.0,West,5.8,-,N/A,,Partly Cloudy,280,2013-03-06 20:53:00
1:53 PM,66.9,41.0,39,30.06,10.0,Variable,6.9,-,N/A,,Clear,0,2013-03-06 21:53:00
2:53 PM,66.0,41.0,40,30.04,10.0,SSW,9.2,-,N/A,,Mostly Cloudy,210,2013-03-06 22:53:00
3:53 PM,66.0,42.1,42,30.03,10.0,Variable,4.6,-,N/A,,Partly Cloudy,0,2013-03-06 23:53:00
4:53 PM,64.0,43.0,46,30.03,10.0,Variable,5.8,-,N/A,,Scattered Clouds,0,2013-03-07 00:53:00
5:53 PM,62.1,44.1,52,30.03,10.0,Variable,5.8,-,N/A,,Overcast,0,2013-03-07 01:53:00
6:53 PM,60.1,45.0,57,30.04,10.0,NW,4.6,-,N/A,,Overcast,310,2013-03-07 02:53:00
7:53 PM,59.0,46.9,64,30.03,10.0,Variable,3.5,-,0.00,Rain,Light Rain,0,2013-03-07 03:53:00
8:53 PM,59.0,48.0,67,30.03,10.0,Calm,Calm,-,0.00,,Overcast,0,2013-03-07 04:53:00
9:44 PM,59.0,48.2,67,30.03,10.0,West,4.6,-,N/A,,Overcast,260,2013-03-07 05:44:00
9:53 PM,59.0,48.0,67,30.03,10.0,SW,5.8,-,N/A,,Overcast,230,2013-03-07 05:53:00
10:53 PM,57.9,48.9,72,30.02,10.0,Calm,Calm,-,0.00,,Overcast,0,2013-03-07 06:53:00
11:53 PM,57.9,48.9,72,30.01,10.0,Calm,Calm,-,N/A,,Overcast,0,2013-03-07 07:53:00